Regional Weather Roundup
Issued by NWS

Home | Current Version | Previous Version | Graphics & Text | Print | Product List | Glossary Off
Versions: 1 2 3 4 5 6 7 8 9 10 11 12 13 14 15 16 17 18 19 20 21 22 23 24 25 26 27 28 29 30 31 32 33 34 35 36 37 38 39 40 41 42 43 44 45 46 47 48 49 50

000
ASUS43 KLSX 161757
RWRMO

WEATHER SUMMARY FOR MISSOURI
NATIONAL WEATHER SERVICE SPRINGFIELD MO
1200 PM CST TUE JAN 16 2018

NOTE: "FAIR" INDICATES FEW OR NO CLOUDS BELOW 12,000 FEET WITH NO
       SIGNIFICANT WEATHER AND/OR OBSTRUCTIONS TO VISIBILITY.
       CURRENT SKY AND/OR WEATHER CONDITIONS ARE NOT AVAILABLE FOR
       CHILLICOTHE AND FARMINGTON.

MOZ001>031-035>038-043-044-053-054-161900-
...NORTHERN AND WESTERN MISSOURI...

CITY           SKY/WX    TMP DP  RH WIND       PRES   REMARKS
KANSAS CTY INT FLURRIES   6  -3  66 NW13      30.74F WCI -10
6HR MIN TEMP:  -5; 6HR MAX TEMP:   6; 6HR PCP: TRACE;

LEE`S SUMMIT   SUNNY      6  -2  69 NW10      30.74F WCI  -9
6HR MIN TEMP:  -3; 6HR MAX TEMP:   6;

ST JOSEPH      CLOUDY     4  -2  76 NW13      30.79F WCI -13

$$
MOZ066>068-077>081-088>096-101>105-161900-
...SOUTHWEST MISSOURI...

CITY           SKY/WX    TMP DP  RH WIND       PRES   REMARKS
SPRINGFIELD    MIX PCPN   3  -6  66 NW9       30.69F WCI -12
6HR MIN TEMP:  -5; 6HR MAX TEMP:   3; 6HR PCP: TRACE;

JOPLIN         SUNNY      3  -5  69 NW12      30.79F WCI -13
6HR MIN TEMP:  -6; 6HR MAX TEMP:   3;


$$
MOZ032>034-039>042-045>050-055>058-069>072-161900-
...CENTRAL MISSOURI...

CITY           SKY/WX    TMP DP  RH WIND       PRES   REMARKS
COLUMBIA       NOT AVBL
JEFFERSON CITY SUNNY      4  -6  63 NW13      30.74F WCI -13
6HR MIN TEMP:  -3; 6HR MAX TEMP:   4;

ROLLA          SUNNY      3  -5  69 W13       30.65F WCI -14
6HR MIN TEMP:  -5; 6HR MAX TEMP:   3;

SEDALIA        CLOUDY     4  -2  76 NW9       30.74F WCI -10
6HR MIN TEMP:  -3; 6HR MAX TEMP:   4;

WARRENSBURG    CLOUDY     5  -4  66 W8        30.77F WCI  -8

$$
MOZ051-052-059>065-161900-
...EAST CENTRAL MISSOURI...

CITY           SKY/WX    TMP DP  RH WIND       PRES   REMARKS
ST LOUIS INTL  MOSUNNY    7  -2  66 NW13G22   30.66F WCI  -9
6HR MIN TEMP:  -1; 6HR MAX TEMP:   7; 6HR PCP: TRACE;


$$
MOZ072>076-082>087-097>100-106>115-161900-
...SOUTH CENTRAL AND SOUTHEAST MISSOURI...

CITY           SKY/WX    TMP DP  RH WIND       PRES   REMARKS
CAPE GIRARDEAU FAIR      11  -1  58 NW10      30.68F WCI  -3
6HR MIN TEMP:   2; 6HR MAX TEMP:  11;

POPLAR BLUFF   FAIR      17  -2  43 NW8       30.69F WCI   7
6HR MIN TEMP:   4; 6HR MAX TEMP:  20; 6HR PCP: TRACE;

WEST PLAINS    SUNNY      8  -4  58 NW12G21   30.64F WCI  -7
6HR MIN TEMP:  -3; 6HR MAX TEMP:   9;


$$



USA.gov is the U.S. government's official web portal to all federal, state and local government web resources and services.